MDT,Max TemperatureF,Mean TemperatureF,Min TemperatureF,Max Dew PointF,MeanDew PointF,Min DewpointF,Max Humidity, Mean Humidity, Min Humidity, Max Sea Level PressureIn, Mean Sea Level PressureIn, Min Sea Level PressureIn, Max VisibilityMiles, Mean VisibilityMiles, Min VisibilityMiles, Max Wind SpeedMPH, Mean Wind SpeedMPH, Max Gust SpeedMPH,PrecipitationIn, CloudCover, Events, WindDirDegrees
2012-10-1,73,64,54,46,39,36,75,39,26,30.22,30.05,29.93,10,9,1,30,17,39,0.00,0,,43
2012-10-2,80,68,55,46,42,37,64,43,24,30.07,29.98,29.86,10,9,8,31,14,38,0.00,0,,222
2012-10-3,87,73,62,38,31,24,38,23,11,29.94,29.87,29.82,10,10,9,29,18,38,0.00,0,Rain,245
2012-10-4,73,64,57,39,33,26,49,31,19,30.34,30.06,29.91,10,9,7,24,16,,0.00,0,Rain,92
2012-10-5,84,72,61,38,35,31,42,28,16,30.07,29.97,29.87,10,9,8,29,13,41,0.00,0,,239
2012-10-6,69,56,41,54,47,33,100,89,26,30.16,30.05,29.88,10,3,0,56,26,60,0.00,7,Fog-Rain,58
2012-10-7,55,44,33,38,34,30,100,81,55,30.23,30.15,30.07,10,7,0,44,34,,0.00,5,Fog-Rain,62
2012-10-8,75,56,37,42,38,36,100,70,26,30.19,30.09,29.93,10,6,0,31,19,24,0.00,2,Fog,130
2012-10-9,84,70,57,41,32,26,51,28,14,30.00,29.92,29.86,10,10,9,26,14,37,0.00,0,,234
2012-10-10,69,58,50,47,36,26,80,45,21,30.21,30.03,29.91,10,9,2,36,19,40,0.00,0,,70
2012-10-11,82,66,52,61,54,48,97,67,31,30.17,30.02,29.94,10,8,4,37,17,23,0.00,1,,74
2012-10-12,84,72,62,63,56,47,96,69,31,30.19,30.01,29.89,10,7,0,33,17,25,0.11,4,Fog-Rain,102
2012-10-13,73,64,55,41,27,15,44,27,12,30.02,29.92,29.85,10,10,10,41,24,56,0.00,0,,250
2012-10-14,64,57,52,32,27,23,41,31,24,30.33,30.11,30.03,10,9,3,34,14,40,0.00,0,,51
2012-10-15,,,,,,,,,,,,,,,,,,,0.00,,,-1
2012-10-16,77,70,64,50,35,27,56,29,16,30.06,29.93,29.69,10,10,9,37,28,48,0.00,0,,247
2012-10-17,81,68,55,28,25,22,28,20,13,29.86,29.76,29.66,10,10,9,37,27,47,0.00,0,,248
2012-10-18,82,68,54,35,25,8,42,26,6,30.07,29.91,29.82,10,10,9,25,14,31,0.00,0,,22
2012-10-19,82,68,54,33,24,17,45,20,11,29.99,29.90,29.83,10,10,9,24,15,28,0.00,0,,237
2012-10-20,81,70,59,37,31,24,33,26,20,29.86,29.80,29.73,10,10,9,31,17,37,0.00,0,,238
2012-10-21,81,68,57,41,37,32,53,35,17,29.89,29.83,29.76,10,10,9,31,21,41,0.00,1,,243
2012-10-22,75,66,57,42,39,34,57,40,23,29.93,29.87,29.80,10,10,9,36,20,50,0.00,0,,241
2012-10-23,82,68,55,38,33,27,51,31,15,29.93,29.87,29.82,10,10,10,25,17,33,0.00,0,,244
2012-10-24,82,72,62,41,29,21,36,23,13,29.94,29.78,29.69,10,10,9,41,20,48,0.00,0,,242
2012-10-25,66,58,46,33,26,19,56,29,16,30.06,29.88,29.67,10,10,8,46,32,56,0.00,0,,64
2012-10-26,46,40,34,32,28,20,79,63,48,30.32,30.19,30.01,10,9,1,45,38,46,0.00,2,,53
2012-10-27,57,44,34,30,19,16,50,43,34,30.25,30.20,30.06,10,10,3,33,25,,0.00,3,,57
2012-10-28,69,54,39,33,26,18,47,35,25,30.18,30.11,30.03,10,10,9,18,6,24,0.00,0,,246
2012-10-29,75,63,51,31,25,17,43,27,15,30.15,30.06,29.99,10,10,9,24,14,29,0.00,0,,246
2012-10-30,78,65,53,21,15,11,26,16,8,30.04,29.99,29.91,10,10,9,24,12,36,0.00,0,,246
2012-10-31,73,65,57,29,19,10,32,18,12,30.05,30.00,29.94,10,10,9,22,10,22,0.00,0,,55